Time,TemperatureF,DewpointF,PressureIn,WindDirection,WindDirectionDegrees,WindSpeedMPH,WindSpeedGustMPH,Humidity,HourlyPrecipIn,Conditions,Clouds,dailyrainin,SoftwareType,DateUTC
2013-05-21 05:33:00,65.0,-99.9,-100.00,ESE,109,6.0,-999.0,-999,0.00,,,0.75,,2013-05-21 10:33:00,
2013-05-21 05:42:00,65.0,-99.9,-100.00,ESE,109,6.0,-999.0,-999,0.00,,,0.75,,2013-05-21 10:42:00,
2013-05-21 05:53:00,65.0,-99.9,-100.00,ESE,109,6.0,-999.0,-999,0.00,,,0.75,,2013-05-21 10:53:00,
2013-05-21 06:03:00,65.0,-99.9,-100.00,ESE,111,4.0,-999.0,-999,0.00,,,0.75,,2013-05-21 11:03:00,
2013-05-21 06:12:00,65.0,-99.9,-100.00,ESE,111,4.0,-999.0,-999,0.00,,,0.75,,2013-05-21 11:12:00,
2013-05-21 06:22:00,65.0,-99.9,-100.00,ESE,111,4.0,-999.0,-999,0.00,,,0.75,,2013-05-21 11:22:00,
2013-05-21 06:32:00,65.0,-99.9,-100.00,ESE,115,3.0,-999.0,-999,0.00,,,0.75,,2013-05-21 11:32:00,
2013-05-21 06:42:00,65.0,-99.9,-100.00,ESE,115,3.0,-999.0,-999,0.00,,,0.75,,2013-05-21 11:42:00,
2013-05-21 06:52:00,65.0,-99.9,-100.00,ESE,115,3.0,-999.0,-999,0.00,,,0.75,,2013-05-21 11:52:00,
2013-05-21 07:02:00,66.0,-99.9,-100.00,East,99,3.0,-999.0,-999,0.00,,,0.75,,2013-05-21 12:02:00,
2013-05-21 07:11:00,66.0,-99.9,-100.00,East,99,3.0,-999.0,-999,0.00,,,0.75,,2013-05-21 12:11:00,
2013-05-21 07:22:00,66.0,-99.9,-100.00,East,99,3.0,-999.0,-999,0.00,,,0.75,,2013-05-21 12:22:00,
2013-05-21 07:32:00,66.0,-99.9,-100.00,SE,128,3.0,-999.0,-999,0.00,,,0.75,,2013-05-21 12:32:00,
2013-05-21 07:42:00,66.0,-99.9,-100.00,SE,128,3.0,-999.0,-999,0.00,,,0.75,,2013-05-21 12:42:00,
2013-05-21 07:52:00,66.0,-99.9,-100.00,SE,128,3.0,-999.0,-999,0.00,,,0.75,,2013-05-21 12:52:00,
2013-05-21 08:00:00,67.0,-99.9,-100.00,South,173,1.0,-999.0,-999,0.00,,,0.74,,2013-05-21 13:00:00,
2013-05-21 08:01:00,66.0,-99.9,-100.00,SE,145,3.0,-999.0,-999,0.00,,,0.75,,2013-05-21 13:01:00,
2013-05-21 08:12:00,66.0,-99.9,-100.00,SE,145,3.0,-999.0,-999,0.00,,,0.75,,2013-05-21 13:12:00,
2013-05-21 08:22:00,66.0,-99.9,-100.00,SE,145,3.0,-999.0,-999,0.00,,,0.75,,2013-05-21 13:22:00,
2013-05-21 08:32:00,67.0,-99.9,-100.00,South,173,1.0,-999.0,-999,0.00,,,0.74,,2013-05-21 13:32:00,
2013-05-21 08:42:00,67.0,-99.9,-100.00,South,173,1.0,-999.0,-999,0.00,,,0.74,,2013-05-21 13:42:00,
2013-05-21 08:52:00,67.0,-99.9,-100.00,South,173,1.0,-999.0,-999,0.00,,,0.74,,2013-05-21 13:52:00,
2013-05-21 09:30:00,71.0,-99.9,-100.00,SW,229,2.0,-999.0,-999,0.00,,,-99.99,,2013-05-21 14:30:00,
2013-05-21 09:32:00,70.0,-99.9,-100.00,WSW,254,3.0,-999.0,-999,0.00,,,0.74,,2013-05-21 14:32:00,
2013-05-21 09:42:00,70.0,-99.9,-100.00,WSW,254,3.0,-999.0,-999,0.00,,,0.74,,2013-05-21 14:42:00,
2013-05-21 09:52:00,70.0,-99.9,-100.00,WSW,254,3.0,-999.0,-999,0.00,,,0.74,,2013-05-21 14:52:00,
2013-05-21 10:01:00,71.0,-99.9,-100.00,SW,229,2.0,-999.0,-999,0.00,,,-99.99,,2013-05-21 15:01:00,
2013-05-21 10:11:00,71.0,-99.9,-100.00,SW,229,2.0,-999.0,-999,0.00,,,-99.99,,2013-05-21 15:11:00,
2013-05-21 10:21:00,71.0,-99.9,-100.00,SW,229,2.0,-999.0,-999,0.00,,,-99.99,,2013-05-21 15:21:00,
2013-05-21 11:03:00,73.0,-99.9,-100.00,SSW,192,4.0,-999.0,-999,0.00,,,0.74,,2013-05-21 16:03:00,
2013-05-21 11:13:00,73.0,-99.9,-100.00,SSW,192,4.0,-999.0,-999,0.00,,,0.74,,2013-05-21 16:13:00,
2013-05-21 11:23:00,73.0,-99.9,-100.00,SSW,192,4.0,-999.0,-999,0.00,,,0.74,,2013-05-21 16:23:00,
2013-05-21 11:32:00,74.0,-99.9,-100.00,SSE,164,3.0,-999.0,-999,0.00,,,0.74,,2013-05-21 16:32:00,
2013-05-21 11:42:00,74.0,-99.9,-100.00,SSE,164,3.0,-999.0,-999,0.00,,,0.74,,2013-05-21 16:42:00,
2013-05-21 11:53:00,74.0,-99.9,-100.00,SSE,164,3.0,-999.0,-999,0.00,,,0.74,,2013-05-21 16:53:00,
2013-05-21 12:02:00,74.0,-99.9,-100.00,SSW,208,3.0,-999.0,-999,0.00,,,0.74,,2013-05-21 17:02:00,
2013-05-21 12:12:00,74.0,-99.9,-100.00,SSW,208,3.0,-999.0,-999,0.00,,,0.74,,2013-05-21 17:12:00,
2013-05-21 12:23:00,74.0,-99.9,-100.00,SSW,208,3.0,-999.0,-999,0.00,,,0.74,,2013-05-21 17:23:00,
2013-05-21 12:33:00,76.0,-99.9,-100.00,SSW,200,6.0,-999.0,-999,0.00,,,0.74,,2013-05-21 17:33:00,
2013-05-21 12:44:00,76.0,-99.9,-100.00,SSW,200,6.0,-999.0,-999,0.00,,,0.74,,2013-05-21 17:44:00,
2013-05-21 12:53:00,77.0,-99.9,-100.00,SW,230,3.0,-999.0,-999,0.00,,,0.73,,2013-05-21 17:53:00,
2013-05-21 13:02:00,77.0,-99.9,-100.00,SW,230,3.0,-999.0,-999,0.00,,,0.73,,2013-05-21 18:02:00,
2013-05-21 13:13:00,77.0,-99.9,-100.00,SW,230,3.0,-999.0,-999,0.00,,,0.73,,2013-05-21 18:13:00,
2013-05-21 13:22:00,77.0,-99.9,-100.00,SW,230,3.0,-999.0,-999,0.00,,,0.73,,2013-05-21 18:22:00,
2013-05-21 13:32:00,78.0,-99.9,-100.00,WSW,245,1.0,-999.0,-999,0.00,,,0.73,,2013-05-21 18:32:00,
2013-05-21 13:42:00,78.0,-99.9,-100.00,WSW,245,1.0,-999.0,-999,0.00,,,0.73,,2013-05-21 18:42:00,
2013-05-21 13:52:00,78.0,-99.9,-100.00,WSW,245,1.0,-999.0,-999,0.00,,,0.73,,2013-05-21 18:52:00,
2013-05-21 14:02:00,79.0,-99.9,-100.00,SW,222,1.0,-999.0,-999,0.00,,,0.73,,2013-05-21 19:02:00,
2013-05-21 14:12:00,79.0,-99.9,-100.00,SW,222,1.0,-999.0,-999,0.00,,,0.73,,2013-05-21 19:12:00,
2013-05-21 14:22:00,79.0,-99.9,-100.00,SW,222,1.0,-999.0,-999,0.00,,,0.73,,2013-05-21 19:22:00,
2013-05-21 14:32:00,78.0,-99.9,-100.00,South,185,3.0,-999.0,-999,0.00,,,0.73,,2013-05-21 19:32:00,
2013-05-21 14:42:00,78.0,-99.9,-100.00,South,185,3.0,-999.0,-999,0.00,,,0.73,,2013-05-21 19:42:00,
2013-05-21 14:53:00,78.0,-99.9,-100.00,South,185,3.0,-999.0,-999,0.00,,,0.73,,2013-05-21 19:53:00,
2013-05-21 15:03:00,79.0,-99.9,-100.00,South,187,1.0,-999.0,-999,0.00,,,0.73,,2013-05-21 20:03:00,
2013-05-21 15:11:00,79.0,-99.9,-100.00,South,187,1.0,-999.0,-999,0.00,,,0.73,,2013-05-21 20:11:00,
2013-05-21 15:22:00,79.0,-99.9,-100.00,South,187,1.0,-999.0,-999,0.00,,,0.73,,2013-05-21 20:22:00,
2013-05-21 15:33:00,79.0,-99.9,-100.00,SSW,213,2.0,-999.0,-999,0.00,,,0.73,,2013-05-21 20:33:00,
2013-05-21 15:42:00,79.0,-99.9,-100.00,SSW,213,2.0,-999.0,-999,0.00,,,0.73,,2013-05-21 20:42:00,
2013-05-21 15:52:00,79.0,-99.9,-100.00,SW,231,3.0,-999.0,-999,0.00,,,0.73,,2013-05-21 20:52:00,
2013-05-21 16:02:00,79.0,-99.9,-100.00,SW,231,3.0,-999.0,-999,0.00,,,0.73,,2013-05-21 21:02:00,
2013-05-21 16:11:00,79.0,-99.9,-100.00,SW,231,3.0,-999.0,-999,0.00,,,0.73,,2013-05-21 21:11:00,
2013-05-21 16:22:00,79.0,-99.9,-100.00,SW,231,3.0,-999.0,-999,0.00,,,0.73,,2013-05-21 21:22:00,
2013-05-21 16:33:00,80.0,-99.9,-100.00,NW,311,1.0,-999.0,-999,0.00,,,0.73,,2013-05-21 21:33:00,
2013-05-21 16:44:00,80.0,-99.9,-100.00,NW,311,1.0,-999.0,-999,0.00,,,0.73,,2013-05-21 21:44:00,
2013-05-21 16:54:00,80.0,-99.9,-100.00,NW,311,1.0,-999.0,-999,0.00,,,0.73,,2013-05-21 21:54:00,
2013-05-21 17:03:00,78.0,-99.9,-100.00,SSE,159,2.0,-999.0,-999,0.00,,,0.73,,2013-05-21 22:03:00,
2013-05-21 17:13:00,78.0,-99.9,-100.00,SSE,159,2.0,-999.0,-999,0.00,,,0.73,,2013-05-21 22:13:00,
2013-05-21 17:23:00,78.0,-99.9,-100.00,SSE,159,2.0,-999.0,-999,0.00,,,0.73,,2013-05-21 22:23:00,
2013-05-21 17:34:00,77.0,-99.9,-100.00,WNW,303,1.0,-999.0,-999,0.00,,,0.73,,2013-05-21 22:34:00,
2013-05-21 17:42:00,77.0,-99.9,-100.00,WNW,303,1.0,-999.0,-999,0.00,,,0.73,,2013-05-21 22:42:00,
2013-05-21 17:53:00,77.0,-99.9,-100.00,WNW,303,1.0,-999.0,-999,0.00,,,0.73,,2013-05-21 22:53:00,
2013-05-21 18:02:00,78.0,-99.9,-100.00,SSE,168,3.0,-999.0,-999,0.00,,,0.73,,2013-05-21 23:02:00,
2013-05-21 18:12:00,78.0,-99.9,-100.00,SSE,168,3.0,-999.0,-999,0.00,,,0.73,,2013-05-21 23:12:00,
2013-05-21 18:22:00,78.0,-99.9,-100.00,SSE,168,3.0,-999.0,-999,0.00,,,0.73,,2013-05-21 23:22:00,
2013-05-21 18:32:00,78.0,-99.9,-100.00,WNW,294,1.0,-999.0,-999,0.00,,,0.73,,2013-05-21 23:32:00,
2013-05-21 18:42:00,78.0,-99.9,-100.00,WNW,294,1.0,-999.0,-999,0.00,,,0.73,,2013-05-21 23:42:00,
2013-05-21 18:52:00,78.0,-99.9,-100.00,WNW,294,1.0,-999.0,-999,0.00,,,0.73,,2013-05-21 23:52:00,
2013-05-21 19:02:00,76.0,-99.9,-100.00,SSW,212,2.0,-999.0,-999,0.00,,,0.73,,2013-05-22 00:02:00,
2013-05-21 19:11:00,76.0,-99.9,-100.00,SSW,212,2.0,-999.0,-999,0.00,,,0.73,,2013-05-22 00:11:00,
2013-05-21 19:22:00,76.0,-99.9,-100.00,SSW,212,2.0,-999.0,-999,0.00,,,0.73,,2013-05-22 00:22:00,
2013-05-21 19:32:00,76.0,-99.9,-100.00,SSW,201,2.0,-999.0,-999,0.00,,,0.73,,2013-05-22 00:32:00,
2013-05-21 19:42:00,76.0,-99.9,-100.00,SSW,201,2.0,-999.0,-999,0.00,,,0.73,,2013-05-22 00:42:00,
2013-05-21 19:52:00,74.0,-99.9,-100.00,SW,220,0.0,-999.0,-999,0.00,,,0.73,,2013-05-22 00:52:00,
2013-05-21 20:01:00,74.0,-99.9,-100.00,SW,220,0.0,-999.0,-999,0.00,,,0.73,,2013-05-22 01:01:00,
2013-05-21 20:11:00,74.0,-99.9,-100.00,SW,220,0.0,-999.0,-999,0.00,,,0.73,,2013-05-22 01:11:00,
2013-05-21 20:22:00,74.0,-99.9,-100.00,SW,220,0.0,-999.0,-999,0.00,,,0.73,,2013-05-22 01:22:00,
2013-05-21 20:32:00,69.0,-99.9,-100.00,SW,234,2.0,-999.0,-999,0.00,,,0.16,,2013-05-22 01:32:00,
2013-05-21 20:42:00,69.0,-99.9,-100.00,SW,234,2.0,-999.0,-999,0.00,,,0.16,,2013-05-22 01:42:00,
2013-05-21 20:52:00,67.0,-99.9,-100.00,SW,233,3.0,-999.0,-999,0.00,,,0.16,,2013-05-22 01:52:00,
2013-05-21 21:00:00,66.0,-99.9,-100.00,SW,231,3.0,-999.0,-999,0.00,,,0.10,,2013-05-22 02:00:00,
2013-05-21 21:02:00,67.0,-99.9,-100.00,SW,233,3.0,-999.0,-999,0.00,,,0.16,,2013-05-22 02:02:00,
2013-05-21 21:12:00,67.0,-99.9,-100.00,SW,233,3.0,-999.0,-999,0.00,,,0.16,,2013-05-22 02:12:00,
2013-05-21 21:22:00,67.0,-99.9,-100.00,SW,233,3.0,-999.0,-999,0.00,,,0.16,,2013-05-22 02:22:00,
2013-05-21 21:32:00,66.0,-99.9,-100.00,SW,231,3.0,-999.0,-999,0.00,,,0.10,,2013-05-22 02:32:00,
2013-05-21 21:42:00,66.0,-99.9,-100.00,SW,231,3.0,-999.0,-999,0.00,,,0.10,,2013-05-22 02:42:00,
2013-05-21 21:52:00,66.0,-99.9,-100.00,SW,231,3.0,-999.0,-999,0.00,,,0.10,,2013-05-22 02:52:00,
2013-05-21 22:33:00,66.0,-99.9,-100.00,SW,223,3.0,-999.0,-999,0.00,,,0.01,,2013-05-22 03:33:00,
2013-05-21 22:43:00,66.0,-99.9,-100.00,SW,223,3.0,-999.0,-999,0.00,,,0.01,,2013-05-22 03:43:00,
2013-05-21 22:53:00,67.0,-99.9,-100.00,South,176,2.0,-999.0,-999,0.00,,,0.00,,2013-05-22 03:53:00,
2013-05-21 23:04:00,67.0,-99.9,-100.00,South,176,2.0,-999.0,-999,0.00,,,0.00,,2013-05-22 04:04:00,
2013-05-21 23:13:00,67.0,-99.9,-100.00,South,176,2.0,-999.0,-999,0.00,,,0.00,,2013-05-22 04:13:00,
2013-05-21 23:23:00,67.0,-99.9,-100.00,South,176,2.0,-999.0,-999,0.00,,,0.00,,2013-05-22 04:23:00,
2013-05-21 23:33:00,67.0,-99.9,-100.00,SW,223,2.0,-999.0,-999,0.00,,,-99.99,,2013-05-22 04:33:00,
2013-05-21 23:43:00,67.0,-99.9,-100.00,SW,223,2.0,-999.0,-999,0.00,,,-99.99,,2013-05-22 04:43:00,
2013-05-21 23:53:00,67.0,-99.9,-100.00,SW,223,2.0,-999.0,-999,0.00,,,-99.99,,2013-05-22 04:53:00,